THY1ND LCEN-LTFM

Flight info

Callsign THY1ND
Flight time 1h 17m
Altitude 36000
Route GIRNE DCT DOREN UA28 MUT UL619 OSVEL UB545 KFK UM855 SISPI
Aircraft A321/M-SDE3FGHIRWY/LB1

Departure

Time 2026-04-18 09:39
Airport Ercan International Airport (LCEN)

Arrival

Time 2026-04-18 10:57
Airport İstanbul Airport (LTFM)
Time Latitude Longitude Altitude Speed Heading
2026-04-18 08:59 35.14915 33.50518 393 ft 0 kts 200°
2026-04-18 09:22 35.14931 33.50526 393 ft 4 kts 210°
2026-04-18 09:22 35.14952 33.50546 393 ft 4 kts 230°
2026-04-18 09:22 35.14967 33.50572 393 ft 3 kts 242°
2026-04-18 09:22 35.14971 33.50581 393 ft 0 kts 242°
2026-04-18 09:25 35.14971 33.50580 393 ft 0 kts 242°
2026-04-18 09:25 35.14968 33.50575 393 ft 2 kts 242°
2026-04-18 09:26 35.14965 33.50552 393 ft 4 kts 268°
2026-04-18 09:26 35.14973 33.50515 393 ft 5 kts 290°
2026-04-18 09:26 35.14986 33.50474 393 ft 5 kts 291°
2026-04-18 09:26 35.14996 33.50441 393 ft 4 kts 292°
2026-04-18 09:27 35.15005 33.50417 393 ft 2 kts 292°
2026-04-18 09:27 35.15010 33.50401 393 ft 2 kts 292°
2026-04-18 09:27 35.15016 33.50383 393 ft 3 kts 292°
2026-04-18 09:27 35.15026 33.50355 393 ft 5 kts 292°
2026-04-18 09:28 35.15040 33.50312 393 ft 6 kts 292°
2026-04-18 09:28 35.15060 33.50255 393 ft 8 kts 292°
2026-04-18 09:28 35.15082 33.50186 393 ft 10 kts 291°
2026-04-18 09:28 35.15109 33.50104 393 ft 11 kts 291°
2026-04-18 09:29 35.15139 33.50010 393 ft 13 kts 292°
2026-04-18 09:29 35.15174 33.49906 393 ft 14 kts 292°
2026-04-18 09:29 35.15212 33.49794 393 ft 15 kts 292°
2026-04-18 09:29 35.15263 33.49688 393 ft 14 kts 340°
2026-04-18 09:30 35.15343 33.49720 393 ft 12 kts 22°
2026-04-18 09:30 35.15424 33.49761 393 ft 7 kts 23°
2026-04-18 09:30 35.15437 33.49772 393 ft 2 kts 49°
2026-04-18 09:30 35.15435 33.49791 393 ft 3 kts 109°
2026-04-18 09:31 35.15427 33.49816 393 ft 0 kts 111°
2026-04-18 09:31 35.15425 33.49821 393 ft 2 kts 111°
2026-04-18 09:31 35.15412 33.49862 392 ft 8 kts 111°
2026-04-18 09:32 35.15385 33.49945 391 ft 12 kts 111°
2026-04-18 09:32 35.15354 33.50041 391 ft 12 kts 112°
2026-04-18 09:32 35.15324 33.50141 391 ft 13 kts 106°
2026-04-18 09:32 35.15323 33.50256 390 ft 14 kts 77°
2026-04-18 09:33 35.15344 33.50375 392 ft 14 kts 82°
2026-04-18 09:33 35.15353 33.50492 393 ft 10 kts 85°
2026-04-18 09:33 35.15393 33.50527 392 ft 8 kts 329°
2026-04-18 09:33 35.15422 33.50458 392 ft 10 kts 288°
2026-04-18 09:34 35.15446 33.50373 392 ft 11 kts 290°
2026-04-18 09:34 35.15475 33.50283 392 ft 12 kts 292°
2026-04-18 09:34 35.15510 33.50182 392 ft 14 kts 293°
2026-04-18 09:34 35.15549 33.50070 392 ft 15 kts 294°
2026-04-18 09:35 35.15590 33.49953 393 ft 15 kts 289°
2026-04-18 09:35 35.15628 33.49829 392 ft 16 kts 290°
2026-04-18 09:35 35.15671 33.49698 393 ft 17 kts 292°
2026-04-18 09:35 35.15715 33.49566 394 ft 17 kts 292°
2026-04-18 09:36 35.15762 33.49422 392 ft 19 kts 292°
2026-04-18 09:36 35.15812 33.49268 392 ft 20 kts 292°
2026-04-18 09:36 35.15866 33.49104 391 ft 21 kts 291°
2026-04-18 09:36 35.15920 33.48940 392 ft 18 kts 292°
2026-04-18 09:37 35.15929 33.48811 394 ft 14 kts 254°
2026-04-18 09:37 35.15948 33.48744 389 ft 7 kts 350°
2026-04-18 09:37 35.15976 33.48765 393 ft 3 kts 79°
2026-04-18 09:37 35.15973 33.48774 393 ft 1 kts 107°
2026-04-18 09:38 35.15968 33.48793 393 ft 3 kts 109°
2026-04-18 09:38 35.15965 33.48802 393 ft 0 kts 111°
2026-04-18 09:38 35.15961 33.48816 393 ft 11 kts 111°
2026-04-18 09:39 35.15833 33.49206 392 ft 85 kts 111°
2026-04-18 09:39 35.15531 33.50121 393 ft 144 kts 112°
2026-04-18 09:39 35.15136 33.51350 829 ft 156 kts 113°
2026-04-18 09:39 35.14733 33.52625 1442 ft 165 kts 118°
2026-04-18 09:40 35.14417 33.54041 1830 ft 185 kts 100°
2026-04-18 09:40 35.14757 33.55652 2146 ft 214 kts 60°
2026-04-18 09:40 35.15958 33.56861 2459 ft 235 kts 32°
2026-04-18 09:40 35.17317 33.58005 2873 ft 240 kts 50°
2026-04-18 09:41 35.18228 33.59749 3291 ft 250 kts 75°
2026-04-18 09:41 35.18816 33.61819 3808 ft 267 kts 70°
2026-04-18 09:41 35.19849 33.63771 4474 ft 283 kts 51°
2026-04-18 09:41 35.21421 33.65274 5177 ft 293 kts 29°
2026-04-18 09:42 35.23366 33.66047 5914 ft 299 kts
2026-04-18 09:42 35.25456 33.65952 6586 ft 303 kts 345°
2026-04-18 09:42 35.27397 33.65000 7323 ft 301 kts 324°
2026-04-18 09:42 35.28930 33.63348 8061 ft 297 kts 304°
2026-04-18 09:43 35.30136 33.61307 8849 ft 297 kts 301°
2026-04-18 09:43 35.31339 33.59236 9646 ft 299 kts 301°
2026-04-18 09:43 35.32551 33.57148 10332 ft 302 kts 301°
2026-04-18 09:43 35.33775 33.55044 11045 ft 304 kts 301°
2026-04-18 09:44 35.35023 33.52899 11479 ft 319 kts 302°
2026-04-18 09:44 35.36354 33.50602 11622 ft 342 kts 302°
2026-04-18 09:44 35.37762 33.48174 11975 ft 355 kts 302°
2026-04-18 09:44 35.39208 33.45704 12590 ft 360 kts 304°
2026-04-18 09:45 35.40932 33.43439 13246 ft 367 kts 316°
2026-04-18 09:45 35.43048 33.41639 13860 ft 374 kts 329°
2026-04-18 09:45 35.45463 33.40401 14461 ft 380 kts 341°
2026-04-18 09:45 35.48068 33.39727 15076 ft 385 kts 347°
2026-04-18 09:46 35.50714 33.39142 15696 ft 387 kts 347°
2026-04-18 09:46 35.53374 33.38550 16327 ft 390 kts 347°
2026-04-18 09:46 35.56050 33.37954 16940 ft 392 kts 347°
2026-04-18 09:46 35.58743 33.37351 17550 ft 395 kts 347°
2026-04-18 09:47 35.61457 33.36741 18137 ft 398 kts 347°
2026-04-18 09:47 35.64185 33.36125 18670 ft 400 kts 347°
2026-04-18 09:47 35.66917 33.35459 19239 ft 401 kts 345°
2026-04-18 09:47 35.69649 33.34729 19804 ft 402 kts 344°
2026-04-18 09:48 35.72378 33.33969 20380 ft 403 kts 345°
2026-04-18 09:48 35.75124 33.33197 20951 ft 405 kts 345°
2026-04-18 09:48 35.77877 33.32428 21499 ft 407 kts 345°
2026-04-18 09:48 35.80646 33.31665 22048 ft 408 kts 346°
2026-04-18 09:49 35.83430 33.30911 22575 ft 410 kts 346°
2026-04-18 09:49 35.86225 33.30158 23100 ft 412 kts 346°
2026-04-18 09:49 35.88990 33.29414 23544 ft 413 kts 346°
2026-04-18 09:49 35.91812 33.28677 23941 ft 416 kts 349°
2026-04-18 09:50 35.94701 33.28340 24319 ft 420 kts 358°
2026-04-18 09:50 35.97629 33.28441 24709 ft 422 kts
2026-04-18 09:50 36.00574 33.28567 25101 ft 424 kts
2026-04-18 09:50 36.03535 33.28689 25487 ft 426 kts
2026-04-18 09:51 36.06507 33.28747 25874 ft 428 kts 359°
2026-04-18 09:51 36.09489 33.28719 26262 ft 429 kts 358°
2026-04-18 09:51 36.12485 33.28638 26643 ft 431 kts 357°
2026-04-18 09:51 36.15487 33.28534 27024 ft 433 kts 357°
2026-04-18 09:52 36.18505 33.28462 27412 ft 435 kts 358°
2026-04-18 09:52 36.21541 33.28449 27779 ft 437 kts 359°
2026-04-18 09:52 36.24581 33.28481 28145 ft 438 kts 359°
2026-04-18 09:52 36.27640 33.28536 28518 ft 440 kts 359°
2026-04-18 09:53 36.30710 33.28595 28876 ft 442 kts 359°
2026-04-18 09:53 36.33790 33.28644 29223 ft 443 kts 359°
2026-04-18 09:53 36.36884 33.28681 29574 ft 445 kts 359°
2026-04-18 09:53 36.39981 33.28708 29908 ft 447 kts 358°
2026-04-18 09:54 36.43104 33.28737 30152 ft 450 kts 358°
2026-04-18 09:54 36.46245 33.28769 30377 ft 453 kts 358°
2026-04-18 09:54 36.49403 33.28806 30668 ft 455 kts 358°
2026-04-18 09:54 36.52572 33.28845 30977 ft 456 kts 358°
2026-04-18 09:55 36.55758 33.28882 31250 ft 458 kts 358°
2026-04-18 09:55 36.58950 33.28915 31547 ft 459 kts 358°
2026-04-18 09:55 36.62146 33.28945 31918 ft 460 kts 358°
2026-04-18 09:55 36.65350 33.28972 32307 ft 461 kts 358°
2026-04-18 09:56 36.68559 33.29003 32618 ft 462 kts 358°
2026-04-18 09:56 36.71777 33.29036 32918 ft 463 kts 358°
2026-04-18 09:56 36.74998 33.29069 33267 ft 463 kts 358°
2026-04-18 09:56 36.78224 33.29097 33588 ft 463 kts 356°
2026-04-18 09:57 36.81416 33.28720 33869 ft 460 kts 346°
2026-04-18 09:57 36.84449 33.27693 34105 ft 456 kts 336°
2026-04-18 09:57 36.87314 33.26050 34351 ft 452 kts 326°
2026-04-18 09:57 36.89907 33.23871 34619 ft 448 kts 317°
2026-04-18 09:58 36.92170 33.21225 34865 ft 444 kts 309°
2026-04-18 09:58 36.94263 33.18381 35118 ft 444 kts 309°
2026-04-18 09:58 36.96354 33.15536 35374 ft 444 kts 309°
2026-04-18 09:58 36.98446 33.12686 35631 ft 445 kts 309°
2026-04-18 09:59 37.02618 33.06992 35738 ft 443 kts 309°
2026-04-18 10:00 37.08851 32.98465 35736 ft 442 kts 309°
2026-04-18 10:00 37.12997 32.92796 35731 ft 441 kts 309°
2026-04-18 10:01 37.17141 32.87115 35730 ft 441 kts 309°
2026-04-18 10:01 37.21268 32.81437 35728 ft 440 kts 309°
2026-04-18 10:02 37.25389 32.75752 35730 ft 441 kts 309°
2026-04-18 10:02 37.29515 32.70055 35732 ft 441 kts 309°
2026-04-18 10:03 37.33643 32.64360 35741 ft 441 kts 309°
2026-04-18 10:03 37.37770 32.58655 35747 ft 441 kts 310°
2026-04-18 10:04 37.41887 32.52943 35734 ft 440 kts 309°
2026-04-18 10:04 37.45996 32.47234 35734 ft 440 kts 309°
2026-04-18 10:05 37.50111 32.41512 35738 ft 440 kts 309°
2026-04-18 10:05 37.54219 32.35785 35735 ft 441 kts 309°
2026-04-18 10:06 37.57630 32.31014 35742 ft 441 kts 309°
2026-04-18 10:06 37.61735 32.25261 35741 ft 441 kts 309°
2026-04-18 10:07 37.65844 32.19504 35748 ft 442 kts 309°
2026-04-18 10:07 37.69957 32.13730 35753 ft 442 kts 309°
2026-04-18 10:08 37.74075 32.07945 35756 ft 443 kts 309°
2026-04-18 10:08 37.78189 32.02146 35760 ft 443 kts 309°
2026-04-18 10:09 37.82311 31.96329 35773 ft 444 kts 309°
2026-04-18 10:09 37.86432 31.90512 35773 ft 444 kts 309°
2026-04-18 10:10 37.90553 31.84673 35779 ft 444 kts 309°
2026-04-18 10:10 37.94666 31.78822 35771 ft 445 kts 309°
2026-04-18 10:11 37.98783 31.72973 35767 ft 445 kts 309°
2026-04-18 10:11 38.02907 31.67111 35768 ft 446 kts 309°
2026-04-18 10:12 38.07027 31.61232 35763 ft 446 kts 309°
2026-04-18 10:12 38.11117 31.55374 35766 ft 446 kts 309°
2026-04-18 10:13 38.15237 31.49468 35776 ft 447 kts 309°
2026-04-18 10:13 38.19354 31.43562 35754 ft 446 kts 309°
2026-04-18 10:14 38.23466 31.37654 35759 ft 446 kts 309°
2026-04-18 10:14 38.27575 31.31732 35744 ft 447 kts 309°
2026-04-18 10:15 38.31694 31.25791 35746 ft 447 kts 309°
2026-04-18 10:15 38.35811 31.19839 35753 ft 448 kts 309°
2026-04-18 10:16 38.39930 31.13878 35754 ft 448 kts 309°
2026-04-18 10:16 38.44013 31.07956 35751 ft 447 kts 309°
2026-04-18 10:17 38.48113 31.01990 35754 ft 447 kts 309°
2026-04-18 10:17 38.52212 30.96016 35757 ft 447 kts 309°
2026-04-18 10:18 38.56311 30.90046 35763 ft 447 kts 309°
2026-04-18 10:18 38.60404 30.84083 35769 ft 446 kts 309°
2026-04-18 10:19 38.64483 30.78117 35779 ft 445 kts 309°
2026-04-18 10:19 38.68550 30.72145 35782 ft 445 kts 309°
2026-04-18 10:20 38.72591 30.66207 35795 ft 445 kts 309°
2026-04-18 10:20 38.76650 30.60223 35799 ft 444 kts 309°
2026-04-18 10:21 38.81046 30.54668 35807 ft 447 kts 322°
2026-04-18 10:21 38.86497 30.50811 35812 ft 449 kts 332°
2026-04-18 10:22 38.92095 30.47248 35816 ft 449 kts 332°
2026-04-18 10:22 38.97686 30.43660 35814 ft 449 kts 331°
2026-04-18 10:23 39.03278 30.40061 35828 ft 449 kts 331°
2026-04-18 10:23 39.08865 30.36470 35829 ft 449 kts 331°
2026-04-18 10:24 39.14462 30.32874 35838 ft 449 kts 331°
2026-04-18 10:24 39.20055 30.29261 35837 ft 449 kts 331°
2026-04-18 10:25 39.25647 30.25649 35849 ft 449 kts 331°
2026-04-18 10:25 39.31205 30.22061 35850 ft 450 kts 331°
2026-04-18 10:26 39.36831 30.18409 35864 ft 450 kts 330°
2026-04-18 10:26 39.42386 30.14796 35864 ft 450 kts 330°
2026-04-18 10:27 39.48003 30.11209 35873 ft 450 kts 333°
2026-04-18 10:27 39.53752 30.07963 35872 ft 451 kts 335°
2026-04-18 10:28 39.59564 30.04869 35882 ft 451 kts 335°
2026-04-18 10:28 39.65344 30.01715 35882 ft 451 kts 334°
2026-04-18 10:29 39.71097 29.98478 35886 ft 451 kts 334°
2026-04-18 10:29 39.76850 29.95227 35882 ft 451 kts 334°
2026-04-18 10:30 39.82615 29.91983 35882 ft 452 kts 334°
2026-04-18 10:30 39.88398 29.88745 35875 ft 454 kts 336°
2026-04-18 10:30 39.91426 29.87538 35874 ft 457 kts 347°
2026-04-18 10:31 39.94586 29.87004 35884 ft 460 kts 356°
2026-04-18 10:31 40.01007 29.86991 35894 ft 462 kts 359°
2026-04-18 10:32 40.07394 29.86991 35920 ft 462 kts 358°
2026-04-18 10:32 40.13832 29.86978 35923 ft 463 kts 358°
2026-04-18 10:33 40.20269 29.86958 35932 ft 463 kts 358°
2026-04-18 10:33 40.26713 29.86937 35930 ft 463 kts 358°
2026-04-18 10:34 40.33148 29.86928 35935 ft 463 kts 359°
2026-04-18 10:34 40.39575 29.87264 35912 ft 464 kts 11°
2026-04-18 10:34 40.42671 29.88496 35175 ft 470 kts 25°
2026-04-18 10:35 40.45491 29.90701 34106 ft 472 kts 36°
2026-04-18 10:35 40.48147 29.93188 32912 ft 466 kts 36°
2026-04-18 10:35 40.50902 29.95366 31732 ft 460 kts 23°
2026-04-18 10:35 40.53916 29.96631 30607 ft 452 kts
2026-04-18 10:36 40.57025 29.96943 29438 ft 444 kts 358°
2026-04-18 10:36 40.60096 29.96921 28200 ft 438 kts 359°
2026-04-18 10:36 40.63129 29.96909 27014 ft 433 kts 359°
2026-04-18 10:36 40.66116 29.96874 25882 ft 426 kts 354°
2026-04-18 10:37 40.68999 29.96210 24785 ft 417 kts 341°
2026-04-18 10:37 40.71723 29.94988 23729 ft 411 kts 339°
2026-04-18 10:37 40.74409 29.93750 22546 ft 407 kts 339°
2026-04-18 10:37 40.77066 29.92519 21363 ft 402 kts 339°
2026-04-18 10:38 40.79690 29.91302 20233 ft 398 kts 339°
2026-04-18 10:38 40.82279 29.90069 19221 ft 392 kts 335°
2026-04-18 10:38 40.84524 29.88152 18326 ft 381 kts 314°
2026-04-18 10:38 40.86026 29.85414 17686 ft 367 kts 294°
2026-04-18 10:39 40.86752 29.82253 17077 ft 355 kts 276°
2026-04-18 10:39 40.86813 29.79030 16345 ft 349 kts 269°
2026-04-18 10:39 40.86781 29.75868 15836 ft 338 kts 269°
2026-04-18 10:39 40.86737 29.72780 15403 ft 335 kts 269°
2026-04-18 10:40 40.86688 29.69715 14993 ft 332 kts 269°
2026-04-18 10:40 40.86640 29.66674 14586 ft 329 kts 269°
2026-04-18 10:40 40.86678 29.63671 14173 ft 326 kts 277°
2026-04-18 10:40 40.86979 29.60713 13782 ft 323 kts 278°
2026-04-18 10:41 40.87287 29.57783 13350 ft 321 kts 279°
2026-04-18 10:41 40.87591 29.54881 12954 ft 317 kts 279°
2026-04-18 10:41 40.87886 29.52008 12568 ft 314 kts 279°
2026-04-18 10:41 40.88178 29.49164 12188 ft 311 kts 279°
2026-04-18 10:42 40.88464 29.46346 11824 ft 308 kts 278°
2026-04-18 10:42 40.88680 29.43545 11492 ft 305 kts 276°
2026-04-18 10:42 40.88848 29.40762 11119 ft 303 kts 276°
2026-04-18 10:42 40.88948 29.38927 10882 ft 302 kts 275°
2026-04-18 10:43 40.89116 29.35819 10470 ft 301 kts 276°
2026-04-18 10:43 40.89270 29.33068 10133 ft 299 kts 276°
2026-04-18 10:43 40.89427 29.30349 10045 ft 297 kts 276°
2026-04-18 10:43 40.89589 29.27621 9762 ft 302 kts 276°
2026-04-18 10:44 40.89754 29.24851 9348 ft 301 kts 276°
2026-04-18 10:44 40.89918 29.22069 8878 ft 302 kts 276°
2026-04-18 10:44 40.90079 29.19324 8549 ft 299 kts 276°
2026-04-18 10:44 40.90241 29.16591 8173 ft 297 kts 276°
2026-04-18 10:45 40.90400 29.13904 7820 ft 297 kts 276°
2026-04-18 10:45 40.90562 29.11155 7459 ft 295 kts 276°
2026-04-18 10:45 40.90716 29.08493 7104 ft 294 kts 276°
2026-04-18 10:45 40.90869 29.05835 6948 ft 285 kts 276°
2026-04-18 10:46 40.91015 29.03270 6827 ft 275 kts 276°
2026-04-18 10:46 40.91041 29.00785 6699 ft 267 kts 263°
2026-04-18 10:46 40.90618 28.98418 6460 ft 263 kts 255°
2026-04-18 10:46 40.90129 28.96099 6137 ft 262 kts 255°
2026-04-18 10:47 40.89641 28.93783 5846 ft 259 kts 255°
2026-04-18 10:47 40.89162 28.91510 5737 ft 256 kts 255°
2026-04-18 10:47 40.88683 28.89239 5670 ft 256 kts 255°
2026-04-18 10:47 40.88206 28.86970 5600 ft 256 kts 255°
2026-04-18 10:48 40.87743 28.84697 5532 ft 256 kts 260°
2026-04-18 10:48 40.87766 28.82393 5465 ft 250 kts 288°
2026-04-18 10:48 40.88536 28.80381 5402 ft 245 kts 315°
2026-04-18 10:48 40.89846 28.79028 5340 ft 238 kts 338°
2026-04-18 10:49 40.91340 28.78085 5271 ft 238 kts 339°
2026-04-18 10:49 40.92811 28.77141 5208 ft 238 kts 336°
2026-04-18 10:49 40.94263 28.76077 5106 ft 239 kts 334°
2026-04-18 10:49 40.95692 28.74949 5004 ft 238 kts 333°
2026-04-18 10:50 40.97117 28.73861 5002 ft 234 kts 341°
2026-04-18 10:50 40.98662 28.73334 5005 ft 226 kts
2026-04-18 10:50 41.00176 28.73283 5019 ft 210 kts
2026-04-18 10:50 41.01553 28.73249 5010 ft 186 kts
2026-04-18 10:51 41.02804 28.73224 4866 ft 179 kts
2026-04-18 10:51 41.04070 28.73204 4657 ft 183 kts
2026-04-18 10:51 41.05333 28.73179 4421 ft 182 kts
2026-04-18 10:51 41.06596 28.73155 4182 ft 181 kts
2026-04-18 10:52 41.07853 28.73131 3930 ft 180 kts
2026-04-18 10:52 41.09099 28.73107 3685 ft 179 kts
2026-04-18 10:52 41.10340 28.73083 3449 ft 178 kts
2026-04-18 10:52 41.11557 28.73059 3219 ft 177 kts
2026-04-18 10:53 41.12779 28.73035 3003 ft 175 kts
2026-04-18 10:53 41.13982 28.73012 2772 ft 171 kts
2026-04-18 10:53 41.15168 28.72989 2547 ft 170 kts
2026-04-18 10:53 41.16340 28.72966 2307 ft 164 kts
2026-04-18 10:54 41.17385 28.72943 2089 ft 141 kts
2026-04-18 10:54 41.18331 28.72925 1911 ft 133 kts
2026-04-18 10:54 41.19241 28.72909 1729 ft 130 kts
2026-04-18 10:54 41.20140 28.72886 1555 ft 127 kts
2026-04-18 10:55 41.21027 28.72863 1381 ft 127 kts
2026-04-18 10:55 41.21912 28.72857 1221 ft 128 kts
2026-04-18 10:55 41.22802 28.72841 1038 ft 127 kts
2026-04-18 10:55 41.23685 28.72826 859 ft 127 kts
2026-04-18 10:56 41.24568 28.72815 692 ft 127 kts
2026-04-18 10:56 41.25437 28.72794 519 ft 126 kts
2026-04-18 10:56 41.26031 28.72779 401 ft 126 kts
2026-04-18 10:56 41.27083 28.72750 335 ft 95 kts
2026-04-18 10:57 41.27466 28.72750 331 ft 65 kts
2026-04-18 10:57 41.27847 28.72746 332 ft 32 kts 358°
2026-04-18 10:57 41.28038 28.72807 333 ft 22 kts 28°
2026-04-18 10:57 41.28130 28.72884 330 ft 9 kts 48°
2026-04-18 10:58 41.28129 28.72935 332 ft 9 kts 124°
2026-04-18 10:58 41.28071 28.72960 332 ft 10 kts 176°
2026-04-18 10:58 41.27995 28.72963 330 ft 12 kts 180°
2026-04-18 10:58 41.27905 28.72965 333 ft 14 kts 179°
2026-04-18 10:59 41.27803 28.72967 331 ft 15 kts 179°
2026-04-18 10:59 41.27690 28.72971 334 ft 17 kts 179°
2026-04-18 10:59 41.27567 28.72973 330 ft 18 kts 180°
2026-04-18 10:59 41.27435 28.72974 334 ft 20 kts 179°
2026-04-18 11:00 41.27352 28.72978 332 ft 8 kts 176°
2026-04-18 11:00 41.27285 28.72983 333 ft 11 kts 177°
2026-04-18 11:00 41.27204 28.72985 331 ft 13 kts 179°
2026-04-18 11:00 41.27109 28.72987 332 ft 15 kts 180°
2026-04-18 11:01 41.27016 28.72987 330 ft 9 kts 180°
2026-04-18 11:01 41.26963 28.73009 333 ft 8 kts 131°
2026-04-18 11:01 41.26953 28.73087 334 ft 10 kts 88°
2026-04-18 11:02 41.26957 28.73297 334 ft 13 kts 89°
2026-04-18 11:02 41.26958 28.73426 332 ft 15 kts 88°
2026-04-18 11:02 41.26960 28.73571 334 ft 17 kts 89°
2026-04-18 11:02 41.26962 28.73733 334 ft 18 kts 89°
2026-04-18 11:03 41.26957 28.73847 330 ft 11 kts 120°
2026-04-18 11:03 41.26883 28.73872 333 ft 12 kts 178°
2026-04-18 11:03 41.26792 28.73873 332 ft 14 kts 178°
2026-04-18 11:03 41.26690 28.73877 330 ft 15 kts 179°
2026-04-18 11:04 41.26593 28.73879 334 ft 13 kts 179°
2026-04-18 11:04 41.26512 28.73893 333 ft 11 kts 161°
2026-04-18 11:04 41.26448 28.73922 330 ft 9 kts 162°
2026-04-18 11:04 41.26400 28.73947 333 ft 6 kts 176°
2026-04-18 11:05 41.26369 28.73939 331 ft 2 kts 195°
2026-04-18 11:05 41.26358 28.73935 332 ft 1 kts 197°
2026-04-18 11:05 41.26353 28.73933 331 ft 1 kts 197°
2026-04-18 11:05 41.26352 28.73933 331 ft 0 kts 197°